Regional Weather Roundup
Issued by NWS

Home | Current Version | Previous Version | Graphics & Text | Print | Product List | Glossary On
Versions: 1 2 3 4 5 6 7 8 9 10 11 12 13 14 15 16 17 18 19 20 21 22 23 24 25 26 27 28 29 30 31 32 33 34 35 36 37 38 39 40 41 42 43 44 45 46 47 48 49 50
000
ASUS43 KMPX 210601
RWRMN
WEATHER ROUNDUP FOR MINNESOTA
NATIONAL WEATHER SERVICE TWIN CITIES/CHANHASSEN MN
100 AM CDT MON APR 21 2014


NOTE: "FAIR" INDICATES FEW OR NO CLOUDS BELOW 12,000 FEET WITH NO
SIGNIFICANT WEATHER AND/OR OBSTRUCTIONS TO VISIBILITY. N/A MEANS
CURRENT SKY AND/OR WEATHER CONDITIONS ARE NOT AVAILABLE.

MNZ060>063-068>070-210700-
   Twin Cities Metro

CITY           SKY/WX    TMP DP  RH WIND       PRES   REMARKS
TWIN CITIES    CLOUDY    60  54  80 SE5       29.94R
6HR MIN TEMP:  60; 6HR MAX TEMP:  71;

ST PAUL        FAIR      56  53  90 S7        29.94S
CRYSTAL        MOCLDY    59  41  51 CALM      29.92S
BLAINE         FAIR      57  39  51 E3        29.93S
EDEN PRAIRIE   CLOUDY    60  53  77 E3        29.93R
6HR MIN TEMP:  60; 6HR MAX TEMP:  72;

LAKEVILLE      FAIR      55  54  94 CALM      29.93R
SOUTH ST PAUL  FAIR      60  54  79 CALM      29.93S
LAKE ELMO      FAIR      55  52  88 CALM      29.94F
$$
MNZ001>005-007-008-013>017-022>024-027-028-210700-
   Northwest Minnesota

CITY           SKY/WX    TMP DP  RH WIND       PRES   REMARKS
BEMIDJI        FAIR      51  29  43 W12G24    29.90R
HALLOCK        CLOUDY    48  41  76 W12       29.86R
ROSEAU         MOCLDY    55  41  58 SW13G20   29.83F
WARROAD        FAIR      55  43  62 SW9       29.83F
THIEF RVR FALL CLOUDY    54  36  50 W7        29.90S
CROOKSTON      LGT RAIN  55  39  54 NW18      29.90S
FOSSTON        MOCLDY    52  32  46 CALM      29.91S
DETROIT LAKES  FAIR      57  34  41 W6        29.94R
MOORHEAD       FAIR      54  32  43 N8        29.93R
PARK RAPIDS    FAIR      47  33  58 S8        29.87F
$$
MNZ006-009>011-018-025>026-210700-
   North Central Minnesota

CITY           SKY/WX    TMP DP  RH WIND       PRES   REMARKS
BAUDETTE       MOCLDY    49  34  56 SW8       29.84R
FLAG ISLAND    MOCLDY    39  32  75 S7        29.81F
INTL FALLS     FAIR      41  31  67 SE6       29.84F
6HR MIN TEMP:  38; 6HR MAX TEMP:  57;

WASKISH        FAIR      50  32  50 S8G25     29.87R
BIG FORK       FAIR      52  28  40 S8        29.88F
LONGVILLE      FAIR      39  30  70 SE6       29.89F
GRAND RAPIDS   FAIR      52  28  40 SE9       29.91F
CRANE LAKE     FAIR      27  21  80 CALM      29.90F
ORR            FAIR      46  27  46 SE6       29.86F
COOK           FAIR      43  28  56 SE5       29.90F
$$
MNZ012-019>021-037-210700-
   Northeast Minnesota

CITY           SKY/WX    TMP DP  RH WIND       PRES   REMARKS
DULUTH         FAIR      44  30  57 SE8       29.95F
6HR MIN TEMP:  44; 6HR MAX TEMP:  64;

ELY            FAIR      32  27  80 CALM      29.92F
HIBBING        FAIR      33  28  81 CALM      29.92F
EVELETH        FAIR      32  28  86 CALM      29.93F
DULUTH HARBOR  FAIR      34  30  86 CALM      29.96F
SILVER BAY     FAIR      28  28 100 CALM      29.95F
GRAND MARAIS     N/A     32  29  88 CALM      29.96F
G MARAIS ARPRT FAIR      34  25  69 CALM      29.96F
$$
MNZ029>031-032-039>041-046>048-054>057-064-210700-
   West Central Minnesota

CITY           SKY/WX    TMP DP  RH WIND       PRES   REMARKS
FERGUS FALLS   FAIR      54  34  47 W12G33    29.91R
WHEATON        FAIR      61  39  44 S12G17    29.91S
MORRIS         MOCLDY    54  39  58 SE10      29.89F
ALEXANDRIA     CLOUDY    57  35  43 SE9       29.91F
ELBOW LAKE     FAIR      54  37  51 SE10      29.89S
WADENA         FAIR      52  36  54 SE7       29.88F
GLENWOOD       FAIR      54  39  58 SE9       29.92F
APPLETON       FAIR      59  39  47 SE8       29.90F
BENSON         FAIR      61  37  41 SE7       29.91S
ORTONVILLE     FAIR      54  37  54 CALM      29.91S
MADISON        FAIR      55  45  67 NE6       29.90F
WILLMAR        FAIR      57  39  51 E6        29.93S
$$
MNZ033>034-036-042>043-049>051-058-059-210700-
   Central Minnesota

CITY           SKY/WX    TMP DP  RH WIND       PRES   REMARKS
ST CLOUD       CLOUDY    55  37  50 E3        29.92F
6HR MIN TEMP:  49; 6HR MAX TEMP:  72;

SAUK CENTRE    MOCLDY    52  39  61 SE5       29.92S
PAYNESVILLE    CLOUDY    59  34  38 SE7       29.92F
AITKIN         FAIR      52  34  50 SE7       29.90F
PINE RIVER     FAIR      45  36  70 SE3       29.93F
BRAINERD       FAIR      55  30  38 SE5       29.91F
STAPLES        FAIR      52  34  50 S5        29.90S
LONG PRAIRIE   CLOUDY    54  39  58 SE5       29.92F
LITTLE FALLS   FAIR      54  32  43 SE6       29.91F
LITCHFIELD     MOCLDY    57  41  54 E3        29.93S
BUFFALO        CLOUDY    56  42  59 CALM      29.94S
MAPLE LAKE     FAIR      54  39  57 CALM      29.93F
$$
MNZ037-044-045-052-053-210700-
   East Central Minnesota

CITY           SKY/WX    TMP DP  RH WIND       PRES   REMARKS
PRINCETON      FAIR      46  37  71 CALM      29.94S
MORA           FAIR      37  34  87 CALM      29.95F
CAMBRIDGE      FAIR      46  36  66 CALM      29.92S
RUSH CITY      FAIR      43  33  69 CALM      29.94S
HINCKLEY       FAIR      45  32  61 E3        29.94F
CLOQUET        FAIR      45  30  57 CALM      29.94F
MCGREGOR       FAIR      48  32  53 SE7       29.93F
$$
MNZ071>073-080-081-089-090-097-098-210700-
   Southwest Minnesota

CITY           SKY/WX    TMP DP  RH WIND       PRES   REMARKS
MONTEVIDEO     FAIR      55  43  62 SE7       29.91F
GRANITE FALLS  MOCLDY    53  46  76 NE5       29.91F
CANBY          HVY RAIN  51  46  83 W6        29.91S
MARSHALL       FAIR      61  52  72 SE10      29.89S
REDWOOD FALLS  FAIR      60  53  77 SE10      29.90F
OLIVIA         MOCLDY    57  48  72 NE7       29.91S
PIPESTONE      FAIR      57  50  77 SE6       29.89S
WINDOM         FAIR      59  55  88 E7        29.92F
WORTHINGTON    FAIR      64  48  55 S15       29.93S
JACKSON        CLOUDY    61  52  72 E5        29.93S
TRACY          FAIR      60  55  84 SE9       29.89F
SLAYTON        FAIR      52  48  86 SE8       29.90F
$$
MNZ065>067-074>077-082>085-091>093-210700-
   South Central Minnesota

CITY           SKY/WX    TMP DP  RH WIND       PRES   REMARKS
MANKATO        CLOUDY    59  54  82 E8        29.93S
NEW ULM        FAIR      59  55  88 SE6       29.92S
ST JAMES       MOCLDY    57  54  88 SE6       29.94R
FAIRMONT       CLOUDY    59  54  82 E3        29.95R
GLENCOE        CLOUDY    58  50  75 E5        29.93R
FARIBAULT      FAIR      63  54  72 SE10      29.94S
OWATONNA       FAIR      61  55  82 SE10      29.94S
WASECA         FAIR      59  54  82 E8        29.95S
ALBERT LEA     DRIZZLE   61  57  88 S10G20    29.94S
$$
MNZ078>079-086>088-094>096-210700-
   Southeast Minnesota

CITY           SKY/WX    TMP DP  RH WIND       PRES   REMARKS
ROCHESTER      TSTM      57  54  89 CALM      29.98R FOG
6HR MIN TEMP:  56; 6HR MAX TEMP:  65; 6HR PCP:  0.03;

RED WING       FAIR      55  54  94 CALM      29.94S FOG
STANTON        FAIR      62  55  77 SE10G16   29.92S
DODGE CENTER   TSTM      61  57  88 CALM      29.97R
WINONA           N/A    N/A N/A N/A MISG        N/A
AUSTIN         RAIN      59  57  94 S13G20    29.94F
PRESTON        MOCLDY    59  53  79 SW9       29.98R
$$
ABBREVIATIONS USED IN REMARKS
   TC - TEMPERATURES IN CELSIUS
  WCI - WIND CHILL INDEX
   HX - HEAT INDEX
  VSB - VISIBILITY
$$



USA.gov is the U.S. government's official web portal to all federal, state and local government web resources and services.